CDT,Max TemperatureF,Mean TemperatureF,Min TemperatureF,Max Dew PointF,MeanDew PointF,Min DewpointF,Max Humidity, Mean Humidity, Min Humidity, Max Sea Level PressureIn, Mean Sea Level PressureIn, Min Sea Level PressureIn, Max VisibilityMiles, Mean VisibilityMiles, Min VisibilityMiles, Max Wind SpeedMPH, Mean Wind SpeedMPH, Max Gust SpeedMPH,PrecipitationIn, CloudCover, Events, WindDirDegrees
2013-4-1,30,22,15,18,13,10,86,69,51,30.28,30.24,30.14,10,10,10,16,11,22,0.00,0,,307
2013-4-2,33,25,17,19,17,12,100,73,41,30.35,30.31,30.26,10,10,10,12,5,16,0.00,0,,301
2013-4-3,46,32,17,36,26,18,100,74,56,30.36,30.22,29.99,10,10,5,14,4,23,0.00,0,,157
2013-4-4,44,37,30,36,30,25,100,71,49,30.19,30.09,30.00,10,10,7,17,9,24,0.00,0,,302
2013-4-5,37,32,26,34,28,21,93,83,56,30.22,30.10,29.83,10,9,2,21,10,29,0.00,3,Snow,93
2013-4-6,51,43,35,43,37,34,93,85,67,29.82,29.65,29.53,10,10,7,21,14,25,0.00,5,Rain,55
2013-4-7,44,38,33,43,35,30,100,85,70,29.93,29.84,29.73,10,9,2,13,7,16,0.00,7,Rain,68
2013-4-8,44,40,37,43,40,37,100,97,87,30.06,29.82,29.68,10,6,0,14,7,18,0.00,8,Fog-Rain,33
2013-4-9,37,32,28,36,29,27,100,81,65,30.19,30.08,30.01,10,9,2,24,14,31,0.00,7,Rain-Snow-Thunderstorm,16
2013-4-10,37,34,32,34,27,21,100,74,52,30.18,30.04,29.90,10,8,2,24,12,30,0.00,8,Snow,57
2013-4-11,35,32,28,34,30,27,100,93,70,29.89,29.75,29.69,10,5,0,21,15,28,0.00,8,Rain-Snow,57
2013-4-12,35,32,28,30,29,27,100,91,75,29.85,29.76,29.70,10,6,1,14,9,,0.00,8,Snow,335
2013-4-13,35,32,28,30,27,25,100,84,65,29.93,29.88,29.84,10,9,3,10,6,,0.00,8,Snow,283
2013-4-14,35,32,30,36,30,27,100,92,80,29.91,29.65,29.45,10,7,1,23,10,30,0.00,8,Snow,86
2013-4-15,37,34,32,36,30,28,100,82,75,29.98,29.67,29.45,10,10,10,17,5,26,0.00,8,,264
2013-4-16,39,34,30,30,29,27,93,77,61,30.32,30.19,29.98,10,10,10,15,10,23,0.00,4,,318
2013-4-17,39,36,33,36,31,28,100,83,70,30.32,30.16,29.98,10,9,2,16,6,21,0.00,8,Rain-Snow,39
2013-4-18,33,32,30,34,32,30,100,98,93,29.97,29.74,29.61,10,6,0,24,15,34,0.00,8,Snow,351
2013-4-19,37,32,28,30,24,18,100,72,52,30.01,29.75,29.58,10,10,7,25,18,33,0.00,4,,320
2013-4-20,37,28,19,25,17,10,93,62,33,30.28,30.22,30.07,10,10,4,9,5,,0.00,1,Snow,136
2013-4-21,48,39,30,46,37,28,100,93,76,30.28,30.12,30.00,10,8,2,18,11,26,0.00,6,Rain-Snow,154
2013-4-22,39,34,30,36,31,27,100,87,65,30.24,30.19,30.15,10,8,0,21,11,26,0.00,6,Snow,357
2013-4-23,39,30,21,30,23,19,100,73,45,30.21,30.15,30.08,10,10,7,15,9,22,0.00,1,,312
2013-4-24,50,38,26,37,30,23,100,80,37,30.08,29.98,29.91,10,10,2,17,5,26,0.00,3,Rain-Snow,251
2013-4-25,51,40,30,34,30,25,93,71,41,30.20,30.11,30.01,10,10,7,18,10,23,0.00,3,Snow,241
2013-4-26,69,56,42,43,37,27,87,54,23,30.15,30.02,29.92,10,10,10,16,8,20,0.00,1,,286
2013-4-27,75,56,37,45,34,28,93,48,18,30.15,30.03,29.86,10,10,10,12,2,,0.00,0,,184
2013-4-28,80,65,50,52,46,39,87,57,26,29.86,29.75,29.68,10,10,10,22,6,29,0.00,0,Thunderstorm,198
2013-4-29,73,58,42,52,39,27,82,52,21,29.85,29.72,29.51,10,10,10,13,8,17,0.00,0,,72
2013-4-30,66,60,51,61,42,25,88,54,21,29.99,29.65,29.36,10,10,10,24,12,32,0.00,1,Thunderstorm,273